{"data":{"norad_id":65874,"intl_designator":"2025-223W","name":"STARLINK-35425","alt_names":[],"object_type":"PAYLOAD","status":"ACTIVE","operator":null,"country":"US","launch_date":"2025-10-03","launch_site_code":"AFWTR","launch_vehicle":null,"mission":null,"orbit_class":"UNKNOWN","rcs_meters":null,"size_class":null,"mass_kg":null,"dimensions":null,"purposes":["comms"],"wikipedia_slug":null,"has_3d_model":false,"image_url":null,"decayed_at":null,"tle_current":{"epoch":"2026-05-25T04:00:03.998880Z","epoch_age_seconds":63808,"freshness":"FRESH","line1":"1 65874U 25223W   26145.16671295  .00005633  00000+0  18250-3 0  9994","line2":"2 65874  53.1600 298.9832 0001002  89.1810 287.2466 15.33542103  5803","mean_motion":15.33542103,"eccentricity":0.0001002,"inclination_deg":53.16,"raan_deg":298.9832,"arg_perigee_deg":89.181,"mean_anomaly_deg":287.2466,"bstar":0.0001825,"rev_number":580,"period_min":93.900258570208,"perigee_km":464.56857170649,"apogee_km":465.93998731891,"semimajor_km":6843.3912795127,"source":"CELESTRAK","updated_at":"2026-05-25T13:38:20.976600Z"}}}